Location: Novo Ouro Preto
(19.8840°S, 43.9844°W)
Time: 09:28:10
(UTC+00:00)

Cosmos 2237 Rocket - Pass Details

Date: 18 September 2020
Orbit: 836 x 848 km, 71.0° (Epoch: 22 October)

Event Time Altitude Azimuth Distance (km) Brightness Sun altitude
Rises 21:20:52 0° 344° (NNW) 3,372 5.5 -7.8°
Reaches altitude 10° 21:23:17 10° 344° (NNW) 2,445 4.8 -8.4°
Maximum altitude 21:28:55 89° 72° (ENE) 849 2.2 -9.7°
Drops below altitude 10° 21:34:37 10° 162° (SSE) 2,478 4.5 -11.0°
Sets 21:37:05 0° 162° (SSE) 3,420 5.2 -11.6°
